Regional Weather Roundup
Issued by NWS State College, PA

Home | Current Version | Previous Version | Text Only | Print | Product List | Glossary On
Versions: 1 2 3 4 5 6 7 8 9 10 11 12 13 14 15 16 17 18 19 20 21 22 23 24 25 26 27 28 29 30 31 32 33 34 35 36 37 38 39 40 41 42 43 44 45 46 47 48 49 50
000
ASUS41 KCTP 230310
RWRCTP

REGIONAL WEATHER ROUNDUP
NATIONAL WEATHER SERVICE STATE COLLEGE PA
1100 PM EDT WED MAR 22 2017

Note: "fair" indicates few or no clouds below 12,000 feet with no
significant weather and/or obstructions to visibility.

* = STATION THAT DOES NOT REPORT PRECIPITATION /E.G. RAIN...SNOW...ETC/
    THUNDER OR FOG.

PAZ002>004-007>009-013>016-020>023-029>032-230400-
WESTERN PENNSYLVANIA

CITY           SKY/WX    TMP DP  RH WIND       PRES   REMARKS
ERIE           CLEAR     22  11  62 SW6       30.54F WCI  14
MEADVILLE      CLEAR     20   7  57 CALM      30.50S
FRANKLIN*      CLEAR     19   3  49 CALM      30.50S
NEW CASTLE     FAIR      23   9  55 N3        30.54R
BEAVER COUNTY  NOT AVBL
BUTLER*        CLEAR     25   7  46 N3        30.51S
PITTSBURGH INT CLEAR     26   9  48 N13       30.49S WCI  15
PITTSBURGH     CLEAR     26   8  46 N7        30.47S
INDIANA*       CLEAR     25   5  42 N5        30.50S
LATROBE        CLEAR     27   5  39 N5        30.49S
WASHINGTON CO* CLEAR     27   7  43 N6        30.49F
$$

PAZ004>006-010>012-017>019-024>028-033>037-041-042-045-046-049>053-230400-
CENTRAL PENNSYLVANIA

CITY           SKY/WX    TMP DP  RH WIND       PRES   REMARKS
BRADFORD       CLEAR     17   6  62 W6        30.42R WCI   9
DUBOIS         CLEAR     20   3  48 N6        30.45R WCI  12
CLEARFIELD       N/A    N/A N/A N/A MISG      30.46R
JOHNSTOWN      CLEAR     22   4  46 NW9       30.39R WCI  12
ALTOONA        CLEAR     28   3  34 NW7       30.44R
STATE COLLEGE  CLEAR     25   1  36 NW7       30.47R
WILLIAMSPORT   CLEAR     25   1  35 N7        30.49R
SELINSGROVE    CLEAR     24   9  52 N6        30.49R
FT INDIANTOWN  CLEAR     28  -2  27 CALM      30.46R
CAPITAL CITY   CLEAR     32   0  25 N6        30.48R
HARRISBURG     CLEAR     30   2  30 N5        30.47R
YORK           CLEAR     29   7  39 N7        30.45R
$$

PAZ038>040-043-044-047-048-054-055-060>062-067>071-230400-
EASTERN PENNSYLVANIA

CITY           SKY/WX    TMP DP  RH WIND       PRES   REMARKS
SCRANTON       CLEAR     19   4  51 VRB3      30.45R
MOUNT POCONO   CLEAR     13   1  59 NW15G23   30.33R WCI  -3
ALLENTOWN      CLEAR     24   1  36 NW7       30.48R
QUAKERTOWN*    CLEAR     25   0  33 N6        30.46R
READING        CLEAR     27   4  37 N3        30.47R
LANCASTER      CLEAR     28   3  34 N10       30.47R
COATESVILLE    CLEAR     28  -2  26 N8G14     30.45R
POTTSTOWN      CLEAR     25   0  33 N7        30.48R
BLUE BELL      CLEAR     28   0  29 CALM      30.47R
DOYLESTOWN     CLEAR     19   0  43 N6        30.45R WCI  11
WILLOW GROVE   NOT AVBL
NORTH PHILA    CLEAR     28  -1  28 N14G22    30.49R
PHILADELPHIA   CLEAR     30  -7  20 N17G29    30.49R
$$




USA.gov is the U.S. government's official web portal to all federal, state and local government web resources and services.